Skip Page Navigation
NASA JPL Caltech
NASA Logo - Jet Propulsion Laboratory + View the NASA Portal
+ Center for Near-Earth Object Studies
JPL Home Earth Solar System Stars & Galaxies Technology
JPL Solar System Dynamics
BODIES ORBITS EPHEMERIDES TOOLS PHYSICAL DATA DISCOVERY FAQ SITE MAP
JPL Small-Body Database Browser
Search: [ help ]  
34862 (2001 TX79)
Classification: Main-belt Asteroid          SPK-ID: 2034862
Ephemeris | Orbit Diagram | Orbital Elements | Mission Design | Physical Parameters | Discovery Circumstances | Close-Approach Data ]

[ show orbit diagram ]
Orbital Elements at Epoch 2459000.5 (2020-May-31.0) TDB
Reference: JPL 21 (heliocentric ecliptic J2000)
 Element Value Uncertainty (1-sigma)   Units 
e .1473322200203627 4.4204e-08  
a 2.987023884455437 2.0591e-08 au
q 2.54693902430477 1.4144e-07 au
i 5.439489407250729 5.1167e-06 deg
node 165.9500969176235 4.693e-05 deg
peri 158.4851673878709 5.0558e-05 deg
M 279.4242264181411 1.8155e-05 deg
tp 2459422.544701866344
(2021-Jul-27.04470187)
9.5699e-05 TDB
period 1885.629959450878
5.16
1.9497e-05
5.338e-08
d
yr
n .1909176284539078 1.9741e-09 deg/d
Q 3.427108744606104 2.3624e-08 au
  Orbit Determination Parameters
   # obs. used (total)      1055  
   data-arc span      10823 days (29.63 yr)  
   first obs. used      1990-09-09  
   last obs. used      2020-04-27  
   planetary ephem.      DE431  
   SB-pert. ephem.      SB431-N16  
   condition code      0  
   norm. resid. RMS      .55765  
   source      ORB  
   producer      Otto Matic  
   solution date      2020-May-20 07:53:16  

Additional Information
 Earth MOID = 1.53601 au 
 Jupiter MOID = 1.92101 au 
 T_jup = 3.234 
[ show covariance matrix ]

Ephemeris | Orbit Diagram | Orbital Elements | Mission Design | Physical Parameters | Discovery Circumstances | Close-Approach Data ]

Physical Parameter Table
Parameter Symbol Value Units Sigma Reference Notes
absolute magnitude H 14.3   n/a MPO344570  
diameter diameter 9.054 km 0.262 urn:nasa:pds:neowise_diameters_albedos::2.0[mainbelt] (http://adsabs.harvard.edu/abs/2011ApJ...741...68M)  
geometric albedo albedo 0.041   0.004 urn:nasa:pds:neowise_diameters_albedos::2.0[mainbelt] (http://adsabs.harvard.edu/abs/2011ApJ...741...68M)  

34862 (2001 TX79)          Discovered 2001-Oct-13 by LINEAR at Socorro
Reference: 20020128/Numbers.arcLast Updated: 2004-04-19

[ show close-approach data ]
Alternate Designations
 2001 TX79 = 1990 RJ6 = 1997 YP21 
Ephemeris | Orbit Diagram | Orbital Elements | Mission Design | Physical Parameters | Discovery Circumstances | Close-Approach Data ]
ABOUT SSD CREDITS/AWARDS PRIVACY/COPYRIGHT GLOSSARY LINKS
FirstGov 2020-Jul-05 23:56 UT
(server date/time)  
NASA Home Page
Site Manager:   Ryan S. Park
Webmaster  Alan B. Chamberlin